AAL1421 KSJC-KSAN

Flight info

Callsign AAL1421
Flight time 1h 9m
Altitude 35000
Route TECKY4 VLREE EBAYE AVE FIM J1 LAX COMIX2
Aircraft A320/M-SDE3FGHIRWY/LB1

Departure

Time 2026-04-21 01:07
Airport Norman Y. Mineta San Jose International Airport (KSJC)

Arrival

Time 2026-04-21 02:16
Airport San Diego International Airport (KSAN)
Time Latitude Longitude Altitude Speed Heading
2026-04-21 00:22 37.36713 -121.92777 61 ft 0 kts 49°
2026-04-21 00:56 37.36706 -121.92787 53 ft 2 kts 49°
2026-04-21 00:56 37.36696 -121.92802 53 ft 2 kts 49°
2026-04-21 00:56 37.36686 -121.92817 53 ft 2 kts 46°
2026-04-21 00:56 37.36673 -121.92829 59 ft 2 kts 11°
2026-04-21 00:57 37.36656 -121.92830 62 ft 2 kts 338°
2026-04-21 00:57 37.36648 -121.92826 62 ft 0 kts 320°
2026-04-21 01:00 37.36650 -121.92828 62 ft 1 kts 320°
2026-04-21 01:00 37.36665 -121.92844 55 ft 5 kts 320°
2026-04-21 01:00 37.36690 -121.92884 57 ft 6 kts 276°
2026-04-21 01:00 37.36673 -121.92934 58 ft 6 kts 261°
2026-04-21 01:01 37.36702 -121.92987 62 ft 8 kts 317°
2026-04-21 01:01 37.36745 -121.93034 56 ft 8 kts 321°
2026-04-21 01:01 37.36790 -121.93081 56 ft 9 kts 320°
2026-04-21 01:01 37.36874 -121.93174 56 ft 24 kts 317°
2026-04-21 01:02 37.36994 -121.93307 57 ft 22 kts 319°
2026-04-21 01:02 37.37103 -121.93427 58 ft 20 kts 321°
2026-04-21 01:02 37.37191 -121.93521 55 ft 14 kts 320°
2026-04-21 01:02 37.37261 -121.93598 61 ft 13 kts 318°
2026-04-21 01:03 37.37327 -121.93671 58 ft 12 kts 319°
2026-04-21 01:03 37.37382 -121.93730 62 ft 6 kts 320°
2026-04-21 01:03 37.37405 -121.93756 60 ft 4 kts 318°
2026-04-21 01:03 37.37415 -121.93767 53 ft 0 kts 318°
2026-04-21 01:04 37.37416 -121.93768 62 ft 1 kts 317°
2026-04-21 01:04 37.37423 -121.93776 56 ft 2 kts 317°
2026-04-21 01:04 37.37438 -121.93794 56 ft 4 kts 317°
2026-04-21 01:04 37.37471 -121.93830 58 ft 12 kts 319°
2026-04-21 01:05 37.37507 -121.93869 55 ft 0 kts 319°
2026-04-21 01:05 37.37518 -121.93883 58 ft 5 kts 313°
2026-04-21 01:05 37.37528 -121.93919 56 ft 5 kts 276°
2026-04-21 01:05 37.37504 -121.93972 59 ft 9 kts 214°
2026-04-21 01:06 37.37452 -121.93966 61 ft 6 kts 147°
2026-04-21 01:06 37.37423 -121.93936 61 ft 5 kts 139°
2026-04-21 01:06 37.37295 -121.93801 61 ft 57 kts 140°
2026-04-21 01:06 37.36836 -121.93294 63 ft 116 kts 139°
2026-04-21 01:07 37.36104 -121.92489 60 ft 163 kts 138°
2026-04-21 01:07 37.35217 -121.91447 447 ft 180 kts 141°
2026-04-21 01:07 37.34266 -121.90326 1010 ft 191 kts 140°
2026-04-21 01:07 37.33286 -121.89157 1713 ft 196 kts 141°
2026-04-21 01:08 37.32249 -121.87988 2386 ft 205 kts 143°
2026-04-21 01:08 37.31143 -121.86811 3103 ft 211 kts 144°
2026-04-21 01:08 37.30003 -121.85602 3826 ft 218 kts 145°
2026-04-21 01:08 37.28863 -121.84281 4558 ft 230 kts 139°
2026-04-21 01:09 37.27785 -121.82720 5268 ft 243 kts 136°
2026-04-21 01:09 37.26668 -121.80987 5456 ft 261 kts 134°
2026-04-21 01:09 37.25528 -121.79160 5628 ft 268 kts 134°
2026-04-21 01:09 37.24382 -121.77306 6602 ft 268 kts 134°
2026-04-21 01:10 37.23241 -121.75460 7608 ft 267 kts 135°
2026-04-21 01:10 37.22094 -121.73618 8553 ft 269 kts 135°
2026-04-21 01:10 37.20945 -121.71790 9478 ft 271 kts 135°
2026-04-21 01:10 37.19754 -121.69908 10385 ft 273 kts 135°
2026-04-21 01:11 37.18534 -121.67990 10856 ft 292 kts 135°
2026-04-21 01:11 37.17220 -121.65931 11239 ft 311 kts 134°
2026-04-21 01:11 37.15862 -121.63789 11925 ft 317 kts 134°
2026-04-21 01:11 37.14479 -121.61600 12689 ft 321 kts 134°
2026-04-21 01:12 37.13064 -121.59363 13479 ft 325 kts 134°
2026-04-21 01:12 37.11617 -121.57080 14222 ft 328 kts 134°
2026-04-21 01:12 37.10221 -121.54884 14767 ft 332 kts 134°
2026-04-21 01:12 37.08776 -121.52612 14950 ft 333 kts 134°
2026-04-21 01:13 37.07331 -121.50345 14993 ft 333 kts 134°
2026-04-21 01:13 37.05752 -121.48196 14994 ft 329 kts 144°
2026-04-21 01:13 37.04018 -121.46327 14999 ft 328 kts 144°
2026-04-21 01:13 37.02284 -121.44465 14996 ft 328 kts 144°
2026-04-21 01:14 37.00548 -121.42612 14996 ft 328 kts 144°
2026-04-21 01:14 36.98812 -121.40764 15041 ft 331 kts 144°
2026-04-21 01:14 36.97039 -121.38882 15701 ft 334 kts 145°
2026-04-21 01:14 36.95267 -121.37000 16425 ft 336 kts 145°
2026-04-21 01:15 36.93478 -121.35100 17117 ft 339 kts 146°
2026-04-21 01:15 36.91681 -121.33189 17788 ft 342 kts 146°
2026-04-21 01:15 36.89829 -121.31218 18436 ft 346 kts 146°
2026-04-21 01:15 36.87989 -121.29260 19007 ft 349 kts 146°
2026-04-21 01:16 36.86131 -121.27285 19551 ft 353 kts 146°
2026-04-21 01:16 36.84262 -121.25301 20106 ft 357 kts 146°
2026-04-21 01:16 36.82354 -121.23280 20661 ft 361 kts 146°
2026-04-21 01:16 36.81055 -121.21907 21040 ft 363 kts 146°
2026-04-21 01:17 36.79117 -121.19861 21589 ft 367 kts 146°
2026-04-21 01:17 36.77157 -121.17792 22127 ft 371 kts 146°
2026-04-21 01:17 36.75178 -121.15700 22667 ft 375 kts 146°
2026-04-21 01:17 36.73152 -121.13555 23211 ft 379 kts 146°
2026-04-21 01:18 36.71139 -121.11423 23701 ft 382 kts 146°
2026-04-21 01:18 36.69118 -121.09287 24123 ft 385 kts 146°
2026-04-21 01:18 36.67048 -121.07103 24548 ft 388 kts 146°
2026-04-21 01:18 36.64978 -121.04921 24979 ft 391 kts 146°
2026-04-21 01:19 36.62894 -121.02726 25382 ft 394 kts 146°
2026-04-21 01:19 36.60801 -121.00524 25753 ft 395 kts 147°
2026-04-21 01:19 36.58660 -120.98300 26130 ft 397 kts 147°
2026-04-21 01:19 36.56511 -120.96099 26452 ft 400 kts 147°
2026-04-21 01:20 36.54346 -120.93908 26812 ft 404 kts 147°
2026-04-21 01:20 36.52164 -120.91707 27330 ft 400 kts 147°
2026-04-21 01:20 36.50070 -120.89573 28545 ft 380 kts 147°
2026-04-21 01:20 36.48081 -120.87536 29843 ft 360 kts 148°
2026-04-21 01:21 36.46191 -120.85601 30788 ft 346 kts 148°
2026-04-21 01:21 36.44340 -120.83723 31330 ft 344 kts 149°
2026-04-21 01:21 36.42479 -120.81852 31703 ft 344 kts 149°
2026-04-21 01:21 36.40609 -120.79979 32061 ft 346 kts 149°
2026-04-21 01:22 36.38729 -120.78093 32400 ft 349 kts 149°
2026-04-21 01:22 36.36838 -120.76190 32736 ft 351 kts 149°
2026-04-21 01:22 36.34933 -120.74270 33061 ft 354 kts 148°
2026-04-21 01:22 36.32988 -120.72307 33398 ft 357 kts 148°
2026-04-21 01:23 36.31055 -120.70356 33689 ft 359 kts 148°
2026-04-21 01:23 36.29115 -120.68398 34001 ft 362 kts 148°
2026-04-21 01:23 36.27160 -120.66423 34269 ft 364 kts 148°
2026-04-21 01:23 36.25188 -120.64431 34487 ft 367 kts 148°
2026-04-21 01:24 36.23206 -120.62428 34748 ft 368 kts 148°
2026-04-21 01:24 36.21213 -120.60422 34941 ft 373 kts 148°
2026-04-21 01:24 36.17077 -120.56285 34999 ft 391 kts 148°
2026-04-21 01:25 36.12732 -120.51931 34999 ft 408 kts 147°
2026-04-21 01:25 36.08250 -120.47430 34993 ft 419 kts 147°
2026-04-21 01:26 36.03724 -120.42882 34994 ft 421 kts 147°
2026-04-21 01:26 35.99170 -120.38325 34994 ft 421 kts 147°
2026-04-21 01:27 35.94591 -120.33751 34988 ft 420 kts 147°
2026-04-21 01:27 35.90035 -120.29208 34986 ft 421 kts 147°
2026-04-21 01:28 35.85597 -120.24457 34976 ft 427 kts 140°
2026-04-21 01:28 35.81448 -120.19145 34972 ft 427 kts 140°
2026-04-21 01:29 35.77271 -120.13813 34964 ft 427 kts 140°
2026-04-21 01:29 35.73189 -120.08634 34964 ft 427 kts 141°
2026-04-21 01:30 35.69057 -120.03398 34960 ft 427 kts 140°
2026-04-21 01:30 35.64881 -119.98198 34954 ft 423 kts 145°
2026-04-21 01:31 35.60188 -119.93969 34952 ft 418 kts 151°
2026-04-21 01:31 35.55429 -119.89855 34951 ft 418 kts 151°
2026-04-21 01:32 35.50679 -119.85750 34953 ft 418 kts 151°
2026-04-21 01:32 35.45927 -119.81642 34946 ft 418 kts 151°
2026-04-21 01:33 35.41172 -119.77540 34940 ft 418 kts 151°
2026-04-21 01:33 35.36389 -119.73421 34932 ft 417 kts 152°
2026-04-21 01:34 35.31631 -119.69343 34925 ft 417 kts 152°
2026-04-21 01:34 35.26846 -119.65247 34922 ft 417 kts 152°
2026-04-21 01:35 35.22092 -119.61169 34923 ft 417 kts 152°
2026-04-21 01:35 35.17313 -119.57073 34919 ft 417 kts 152°
2026-04-21 01:36 35.12566 -119.53020 34916 ft 416 kts 152°
2026-04-21 01:36 35.07813 -119.48965 34915 ft 416 kts 152°
2026-04-21 01:37 35.03067 -119.44922 34925 ft 417 kts 152°
2026-04-21 01:37 34.98310 -119.40877 34934 ft 416 kts 152°
2026-04-21 01:38 34.93528 -119.36824 34943 ft 416 kts 152°
2026-04-21 01:38 34.89539 -119.33444 34946 ft 416 kts 152°
2026-04-21 01:39 34.84768 -119.29399 34958 ft 416 kts 152°
2026-04-21 01:39 34.80033 -119.25390 34969 ft 416 kts 152°
2026-04-21 01:40 34.75242 -119.21335 34977 ft 416 kts 152°
2026-04-21 01:40 34.70453 -119.17295 34992 ft 416 kts 152°
2026-04-21 01:41 34.65640 -119.13255 35001 ft 416 kts 152°
2026-04-21 01:41 34.60896 -119.09273 35012 ft 416 kts 152°
2026-04-21 01:42 34.56124 -119.05264 35021 ft 417 kts 152°
2026-04-21 01:42 34.51346 -119.01256 35034 ft 418 kts 152°
2026-04-21 01:43 34.46566 -118.97253 35018 ft 417 kts 151°
2026-04-21 01:43 34.41748 -118.93215 35032 ft 418 kts 151°
2026-04-21 01:44 34.37051 -118.89290 35018 ft 418 kts 151°
2026-04-21 01:44 34.32512 -118.84758 35013 ft 423 kts 144°
2026-04-21 01:45 34.28138 -118.80096 35013 ft 423 kts 144°
2026-04-21 01:45 34.23708 -118.75389 34997 ft 423 kts 144°
2026-04-21 01:46 34.19272 -118.70680 34991 ft 423 kts 144°
2026-04-21 01:46 34.14789 -118.65918 34983 ft 423 kts 144°
2026-04-21 01:47 34.10431 -118.61290 34992 ft 424 kts 144°
2026-04-21 01:47 34.08144 -118.58871 34817 ft 425 kts 144°
2026-04-21 01:47 34.05981 -118.56587 34588 ft 426 kts 144°
2026-04-21 01:48 34.03720 -118.54198 34354 ft 426 kts 144°
2026-04-21 01:48 34.01440 -118.51789 34103 ft 426 kts 144°
2026-04-21 01:48 33.99267 -118.49492 33843 ft 425 kts 144°
2026-04-21 01:48 33.97041 -118.47143 33581 ft 424 kts 144°
2026-04-21 01:49 33.94827 -118.44812 33315 ft 424 kts 144°
2026-04-21 01:49 33.92626 -118.42337 33044 ft 426 kts 137°
2026-04-21 01:49 33.90640 -118.39710 32785 ft 426 kts 137°
2026-04-21 01:49 33.88662 -118.37128 32535 ft 425 kts 138°
2026-04-21 01:50 33.86625 -118.34494 32274 ft 424 kts 138°
2026-04-21 01:50 33.84618 -118.31912 32022 ft 422 kts 137°
2026-04-21 01:50 33.82611 -118.29332 31771 ft 421 kts 137°
2026-04-21 01:50 33.80620 -118.26776 31525 ft 419 kts 137°
2026-04-21 01:51 33.78628 -118.24219 31278 ft 418 kts 137°
2026-04-21 01:51 33.76650 -118.21666 31013 ft 416 kts 137°
2026-04-21 01:51 33.74703 -118.19120 30557 ft 413 kts 136°
2026-04-21 01:51 33.72775 -118.16575 30032 ft 411 kts 136°
2026-04-21 01:52 33.70872 -118.14056 29476 ft 408 kts 136°
2026-04-21 01:52 33.67050 -118.09009 28457 ft 400 kts 136°
2026-04-21 01:52 33.65184 -118.06563 27980 ft 396 kts 136°
2026-04-21 01:53 33.63323 -118.04130 27550 ft 393 kts 137°
2026-04-21 01:53 33.61485 -118.01729 27099 ft 389 kts 137°
2026-04-21 01:53 33.59663 -117.99352 26644 ft 386 kts 137°
2026-04-21 01:53 33.57857 -117.96995 26214 ft 383 kts 137°
2026-04-21 01:54 33.56062 -117.94650 25764 ft 380 kts 137°
2026-04-21 01:54 33.54269 -117.92343 25303 ft 377 kts 139°
2026-04-21 01:54 33.52434 -117.90124 24847 ft 373 kts 140°
2026-04-21 01:54 33.50572 -117.87970 24363 ft 371 kts 141°
2026-04-21 01:55 33.48700 -117.85847 23889 ft 370 kts 141°
2026-04-21 01:55 33.46831 -117.83735 23360 ft 369 kts 141°
2026-04-21 01:55 33.44973 -117.81626 22848 ft 367 kts 141°
2026-04-21 01:55 33.43130 -117.79538 22367 ft 363 kts 142°
2026-04-21 01:56 33.41266 -117.77507 21871 ft 360 kts 143°
2026-04-21 01:56 33.39400 -117.75523 21415 ft 358 kts 143°
2026-04-21 01:56 33.37537 -117.73560 20945 ft 356 kts 143°
2026-04-21 01:56 33.35690 -117.71612 20483 ft 354 kts 143°
2026-04-21 01:57 33.33850 -117.69659 20024 ft 352 kts 143°
2026-04-21 01:57 33.32022 -117.67719 19575 ft 350 kts 143°
2026-04-21 01:57 33.30204 -117.65787 19126 ft 349 kts 143°
2026-04-21 01:57 33.28370 -117.63837 18684 ft 347 kts 143°
2026-04-21 01:58 33.26565 -117.61920 18238 ft 346 kts 143°
2026-04-21 01:58 33.24771 -117.60015 17744 ft 345 kts 143°
2026-04-21 01:58 33.22981 -117.58121 17253 ft 344 kts 143°
2026-04-21 01:58 33.21191 -117.56231 16771 ft 343 kts 143°
2026-04-21 01:59 33.19403 -117.54345 16294 ft 342 kts 142°
2026-04-21 01:59 33.17617 -117.52465 15826 ft 342 kts 142°
2026-04-21 01:59 33.15838 -117.50595 15364 ft 339 kts 142°
2026-04-21 01:59 33.14666 -117.49359 15169 ft 327 kts 142°
2026-04-21 02:00 33.12353 -117.47219 14628 ft 315 kts 149°
2026-04-21 02:00 33.10527 -117.45702 14150 ft 316 kts 149°
2026-04-21 02:00 33.09334 -117.44711 13839 ft 315 kts 149°
2026-04-21 02:00 33.07539 -117.43220 13325 ft 314 kts 148°
2026-04-21 02:01 33.05755 -117.41737 12868 ft 312 kts 148°
2026-04-21 02:01 33.03982 -117.40263 12411 ft 309 kts 148°
2026-04-21 02:01 33.02230 -117.38796 11950 ft 307 kts 147°
2026-04-21 02:01 33.00491 -117.37338 11491 ft 305 kts 147°
2026-04-21 02:02 32.98763 -117.35887 11052 ft 302 kts 147°
2026-04-21 02:02 32.97059 -117.34456 10649 ft 293 kts 147°
2026-04-21 02:02 32.95455 -117.33105 10427 ft 275 kts 147°
2026-04-21 02:02 32.93902 -117.31799 10184 ft 267 kts 147°
2026-04-21 02:03 32.92392 -117.30532 9956 ft 265 kts 147°
2026-04-21 02:03 32.90889 -117.29275 9814 ft 265 kts 147°
2026-04-21 02:03 32.89384 -117.28023 9692 ft 263 kts 147°
2026-04-21 02:03 32.87883 -117.26778 9444 ft 263 kts 147°
2026-04-21 02:04 32.86387 -117.25539 9120 ft 261 kts 147°
2026-04-21 02:04 32.84793 -117.24219 8749 ft 260 kts 147°
2026-04-21 02:04 32.83417 -117.23077 8442 ft 259 kts 147°
2026-04-21 02:04 32.82015 -117.21736 8102 ft 259 kts 134°
2026-04-21 02:05 32.80996 -117.19976 7765 ft 261 kts 117°
2026-04-21 02:05 32.80426 -117.17896 7410 ft 261 kts 107°
2026-04-21 02:05 32.79967 -117.15806 7067 ft 260 kts 107°
2026-04-21 02:05 32.79508 -117.13730 6717 ft 260 kts 107°
2026-04-21 02:06 32.79047 -117.11662 6374 ft 258 kts 107°
2026-04-21 02:06 32.78589 -117.09614 6086 ft 253 kts 107°
2026-04-21 02:06 32.78148 -117.07633 5990 ft 241 kts 107°
2026-04-21 02:06 32.77642 -117.05811 5993 ft 224 kts 117°
2026-04-21 02:07 32.76989 -117.04150 5989 ft 227 kts 117°
2026-04-21 02:07 32.76318 -117.02438 5985 ft 231 kts 117°
2026-04-21 02:07 32.75636 -117.00690 5984 ft 233 kts 117°
2026-04-21 02:07 32.74975 -116.98932 5983 ft 233 kts 115°
2026-04-21 02:08 32.74351 -116.97155 5980 ft 233 kts 115°
2026-04-21 02:08 32.73721 -116.95353 5984 ft 233 kts 115°
2026-04-21 02:08 32.73082 -116.93582 5982 ft 233 kts 116°
2026-04-21 02:08 32.72443 -116.91832 5979 ft 233 kts 116°
2026-04-21 02:09 32.71788 -116.90046 5982 ft 234 kts 116°
2026-04-21 02:09 32.71125 -116.88287 5980 ft 233 kts 121°
2026-04-21 02:09 32.70043 -116.86926 5984 ft 227 kts 153°
2026-04-21 02:09 32.68545 -116.86507 5993 ft 223 kts 186°
2026-04-21 02:10 32.67110 -116.87126 5843 ft 221 kts 218°
2026-04-21 02:10 32.66048 -116.88402 5588 ft 212 kts 229°
2026-04-21 02:10 32.65141 -116.89713 5345 ft 201 kts 230°
2026-04-21 02:10 32.64279 -116.90985 5151 ft 194 kts 232°
2026-04-21 02:11 32.63752 -116.92407 5011 ft 190 kts 265°
2026-04-21 02:11 32.64080 -116.93914 4753 ft 193 kts 300°
2026-04-21 02:11 32.64919 -116.95173 4384 ft 196 kts 309°
2026-04-21 02:11 32.65831 -116.96379 4005 ft 197 kts 311°
2026-04-21 02:12 32.66738 -116.97582 3790 ft 192 kts 311°
2026-04-21 02:12 32.67623 -116.98764 3798 ft 191 kts 310°
2026-04-21 02:12 32.68500 -116.99937 3770 ft 191 kts 310°
2026-04-21 02:12 32.69345 -117.01162 3512 ft 190 kts 298°
2026-04-21 02:13 32.69746 -117.02644 3273 ft 189 kts 280°
2026-04-21 02:13 32.69928 -117.04201 3030 ft 187 kts 276°
2026-04-21 02:13 32.70065 -117.05717 2795 ft 182 kts 276°
2026-04-21 02:13 32.70222 -117.07194 2446 ft 183 kts 281°
2026-04-21 02:14 32.70561 -117.08631 2263 ft 175 kts 289°
2026-04-21 02:14 32.70980 -117.09946 2105 ft 167 kts 290°
2026-04-21 02:14 32.71345 -117.11231 1740 ft 169 kts 287°
2026-04-21 02:14 32.71714 -117.12572 1278 ft 167 kts 288°
2026-04-21 02:15 32.72085 -117.13830 979 ft 153 kts 289°
2026-04-21 02:15 32.72384 -117.14997 693 ft 144 kts 286°
2026-04-21 02:15 32.72650 -117.16106 434 ft 137 kts 287°
2026-04-21 02:15 32.72928 -117.17188 180 ft 136 kts 285°
2026-04-21 02:16 32.73181 -117.18257 25 ft 131 kts 285°
2026-04-21 02:16 32.73393 -117.19122 22 ft 71 kts 286°
2026-04-21 02:16 32.73455 -117.19428 23 ft 15 kts 242°
2026-04-21 02:16 32.73418 -117.19507 24 ft 11 kts 248°
2026-04-21 02:17 32.73412 -117.19529 25 ft 0 kts 255°
2026-04-21 02:18 32.73405 -117.19571 24 ft 12 kts 267°
2026-04-21 02:19 32.73432 -117.19699 23 ft 18 kts 287°
2026-04-21 02:19 32.73471 -117.19847 26 ft 19 kts 288°
2026-04-21 02:19 32.73508 -117.20014 24 ft 22 kts 284°
2026-04-21 02:19 32.73538 -117.20134 24 ft 8 kts 287°
2026-04-21 02:20 32.73542 -117.20209 23 ft 10 kts 245°
2026-04-21 02:20 32.73479 -117.20249 21 ft 11 kts 195°
2026-04-21 02:20 32.73411 -117.20271 21 ft 9 kts 195°
2026-04-21 02:20 32.73355 -117.20271 23 ft 8 kts 167°
2026-04-21 02:21 32.73334 -117.20230 21 ft 6 kts 92°
2026-04-21 02:21 32.73338 -117.20187 21 ft 1 kts 83°
2026-04-21 02:21 32.73338 -117.20183 21 ft 0 kts 83°